Location: Meadowbank Aerodrome
(65.0250°N, 96.0705°W)
Time: 03:46:10
(UTC-06:00)

Cosmos 2221 - Visible Passes

Search period start: 12 February 2016 00:00
Search period end: 22 February 2016 00:00
Orbit: 594 x 618 km, 82.5° (Epoch: 11 February)

Date Brightness Start Highest point End Pass type
(mag) Time Alt. Az. Time Alt. Az. Time Alt. Az.
12 Feb 5.0 02:41:21 20° NNE 02:41:21 20° NNE 02:42:44 10° NNE visible
12 Feb 4.4 04:18:14 22° NNW 04:18:14 22° NNW 04:20:17 10° N visible
12 Feb 4.7 05:55:07 12° NW 05:55:27 13° NNW 05:57:22 10° N visible
13 Feb 5.6 01:17:42 12° NE 01:17:42 12° NE 01:18:04 10° NNE visible
13 Feb 4.8 02:54:35 21° NNE 02:54:35 21° NNE 02:56:08 10° NNE visible
13 Feb 4.4 04:31:28 20° NNW 04:31:28 20° NNW 04:33:35 10° N visible
13 Feb 4.8 06:08:21 10° NW 06:09:14 11° NNW 06:10:22 10° N visible
14 Feb 5.5 01:30:56 14° NNE 01:30:56 14° NNE 01:31:37 10° NNE visible
14 Feb 4.7 03:07:49 23° N 03:07:49 23° N 03:09:30 10° NNE visible
14 Feb 4.5 04:44:42 18° NNW 04:44:42 18° NNW 04:46:52 10° N visible
15 Feb 5.3 01:44:09 16° NNE 01:44:09 16° NNE 01:45:07 10° NNE visible
15 Feb 4.6 03:21:02 23° N 03:21:02 23° N 03:22:51 10° NNE visible
15 Feb 4.6 04:57:55 16° NNW 04:57:55 16° NNW 05:00:08 10° N visible
16 Feb 5.2 01:57:23 18° NNE 01:57:23 18° NNE 01:58:33 10° NNE visible
16 Feb 4.5 03:34:15 22° N 03:34:15 22° N 03:36:11 10° N visible
16 Feb 4.7 05:11:08 14° NNW 05:11:08 14° NNW 05:13:20 10° N visible
17 Feb 5.6 00:33:42 10° NE 00:33:42 10° NE 00:33:45 10° NE visible
17 Feb 5.0 02:10:35 20° NNE 02:10:35 20° NNE 02:11:58 10° NNE visible
17 Feb 4.5 03:47:28 21° NNW 03:47:28 21° NNW 03:49:29 10° N visible
17 Feb 4.8 05:24:20 12° NW 05:24:50 12° NNW 05:26:27 10° N visible
18 Feb 5.5 00:46:54 12° NNE 00:46:54 12° NNE 00:47:21 10° NNE visible
18 Feb 4.8 02:23:47 22° NNE 02:23:47 22° NNE 02:25:20 10° NNE visible
18 Feb 4.5 04:00:40 19° NNW 04:00:40 19° NNW 04:02:47 10° N visible
18 Feb 4.9 05:38:01 10° NNW 05:38:37 10° NNW 05:39:13 10° NNW visible
19 Feb 5.4 01:00:06 15° NNE 01:00:06 15° NNE 01:00:53 10° NNE visible
19 Feb 4.7 02:36:58 23° N 02:36:58 23° N 02:38:42 10° NNE visible
19 Feb 4.6 04:13:51 17° NNW 04:13:51 17° NNW 04:16:02 10° N visible
20 Feb 5.2 01:13:17 17° NNE 01:13:17 17° NNE 01:14:20 10° NNE visible
20 Feb 4.6 02:50:10 23° N 02:50:10 23° N 02:52:01 10° N visible
20 Feb 4.7 04:27:02 15° NNW 04:27:02 15° NNW 04:29:15 10° N visible
21 Feb 5.1 01:26:28 19° NNE 01:26:28 19° NNE 01:27:45 10° NNE visible
21 Feb 4.6 03:03:20 22° N 03:03:20 22° N 03:05:20 10° N visible
21 Feb 4.8 04:40:13 13° NNW 04:40:24 13° NNW 04:42:26 10° N visible
